Flag for Poland Weather past 2 weeks in Zielona Góra, Poland

Now
71 °F

Passing clouds.


Feels Like: 77 °F
Forecast: 59 / 81 °F
Wind: 3 mph from Northeast

Location: Zielona Gora

Current Time: Jul 1, 2015 at 9:39:37 PM

Latest Report: Jul 1, 2015 at 9:00 PM


Visibility: 31 mi

Pressure: 30.23 "Hg

Humidity: 40%

Dew point: 46 °F

Location of Zielona GóraLocation

Historic Weather in Zielona Góra — Graph

°F

Zielona Góra temperature yesterday

Maximum temperature yesterday: 75 °F (at 6:00 PM)
Minimum temperature yesterday: 58 °F (at 5:00 AM)
Average temperature yesterday: 67 °F

Past Weeks' High & Low Weather Summary

 TemperatureHumidityPressure
High76 °F (Jul 1, 5:00 PM)99% (Jun 23, 3:00 AM)30.26 "Hg (Jun 23, 3:00 AM)
Low47 °F (Jun 17, 5:00 AM)32% (Jun 17, 5:00 PM)29.65 "Hg (Jun 23, 7:00 AM)
Average59 °F74%30.04 "Hg
* Reported Jun 16 8:00 PM — Jul 1 8:00 PM, Zielona Góra, Weather by CustomWeather, © 2015

Note: Actual official high and low records may vary slightly from our data, if they occured in-between our weather recording intervals... More about our weather records

Advertising

Zielona Góra weather history for previous 24 hours

 ConditionsComfort  
Time TempWeatherWind HumidityBarometerVisibility
8:00 PM
Wed, Jul 1
74 °FPassing clouds.3 mph39%30.21 "Hg31 mi
7:00 PM76 °FPassing clouds.2 mph40%30.21 "Hg31 mi
6:00 PM76 °FPassing clouds.2 mph40%30.20 "Hg31 mi
5:00 PM76 °FPassing clouds.3 mph40%30.21 "Hg31 mi
4:00 PM76 °FPassing clouds.3 mph40%30.22 "Hg31 mi
3:00 PM74 °FPassing clouds.3 mph42%30.22 "Hg31 mi
2:00 PM74 °FPassing clouds.2 mph43%30.23 "Hg31 mi
1:00 PM72 °FPassing clouds.2 mph48%30.24 "Hg31 mi
12:00 PM70 °FPassing clouds.2 mph47%30.25 "Hg31 mi
11:00 AM69 °FPassing clouds.2 mph55%30.26 "Hg31 mi
10:00 AM67 °FPassing clouds.2 mph57%30.26 "Hg31 mi
9:00 AM65 °FSunny.3 mph59%30.25 "Hg31 mi
8:00 AM63 °FSunny.2 mph62%30.25 "Hg31 mi
7:00 AM60 °FPassing clouds.2 mph68%30.24 "Hg31 mi
6:00 AM60 °FPassing clouds.3 mph66%30.24 "Hg31 mi
5:00 AM58 °FPassing clouds.5 mph70%30.23 "Hg31 mi
4:00 AM58 °FClear.3 mph70%30.22 "Hg31 mi
3:00 AM59 °FClear.2 mph70%30.22 "Hg31 mi
2:00 AM60 °FPassing clouds.2 mph69%30.21 "Hg31 mi
1:00 AM62 °FPassing clouds.2 mph63%30.21 "Hg31 mi
12:00 AM64 °FPassing clouds.2 mph59%30.20 "Hg31 mi
11:00 PM
Tue, Jun 30
65 °FPassing clouds.2 mph57%30.19 "Hg28 mi
10:00 PM67 °FPassing clouds.1 mph56%30.18 "Hg28 mi
9:00 PM70 °FScattered clouds.2 mph50%30.15 "Hg31 mi
Weather by CustomWeather, © 2015

See weather overviewHow to use our weather pages